Weather History for Watsonville, CA

Change the Weather History Date:

Thursday, September 13, 2012

  Actual Average Record
Temperature  
Mean Temperature 64 °F 64 °F  
Max Temperature 74 °F 75 °F 89 °F (2003)
Min Temperature 54 °F 52 °F 48 °F (2010)
Degree Days  
Heating Degree Days 1    
Month to date heating degree days 45  
Since 1 July heating degree days 281  
Cooling Degree Days 0    
Month to date cooling degree days 0  
Year to date cooling degree days 19  
Growing Degree Days 12 (Base 50)    
Moisture  
Dew Point 54 °F    
Average Humidity 81    
Maximum Humidity 100    
Minimum Humidity 61    
Precipitation  
Precipitation 0.00 in - 0.22 in (1963)
Month to date precipitation T  
Year to date precipitation 11.98  
Since 1 July precipitation 0.05  
Sea Level Pressure  
Sea Level Pressure 30.07 in    
Wind  
Wind Speed 4 mph (South)    
Max Wind Speed 6 mph    
Max Gust Speed 8 mph    
Visibility 4 miles    
Events Fog    
T = Trace of Precipitation, MM = Missing Value Source: NWS Daily Summary

Daily Weather History Graph

Daily Weather History Graph

Search for Another Location

Airport:

Trip Planner

Search our weather history database for the weather conditions in past years. The results will help you decide how hot, cold, wet, or windy it might be!

Date:

Astronomy

Sep. 13, 2012 Rise Set
Actual Time 6:48 AM PDT 7:16 PM PDT
Civil Twilight 6:22 AM PDT 7:42 PM PDT
Nautical Twilight 5:51 AM PDT 8:13 PM PDT
Astronomical Twilight 5:20 AM PDT 8:44 PM PDT
Moon 4:16 AM PDT (9/13) 5:40 PM PDT (9/13)
Length of Visible Light 13h 20m
Length of Day
12h 28m
Waning Crescent, 7% of the Moon is Illuminated
Sep 13
Waning Crescent
Sep 15
New
Sep 22
First Quarter
Sep 29
Full
Oct 8
Last Quarter

Hourly Weather History & Observations

Time (PDT) Temp. Dew Point Humidity Pressure Visibility Wind Dir Wind Speed Gust Speed Precip Events Conditions
12:11 AM 55.4 °F 55.4 °F 100% 30.06 in 0.8 mi WSW 3.5 mph - N/A   Mist
12:30 AM 55.4 °F 53.6 °F 94% 30.06 in 1.2 mi Calm Calm - N/A   Overcast
12:35 AM 55.4 °F 55.4 °F 100% 30.06 in 2.0 mi Calm Calm - N/A   Overcast
12:42 AM 55.4 °F 55.4 °F 100% 30.06 in 1.2 mi Calm Calm - N/A   Overcast
12:53 AM 55.9 °F 55.0 °F 97% 30.06 in 1.8 mi Calm Calm - N/A   Overcast
12:59 AM 55.4 °F 55.4 °F 100% 30.06 in 3.0 mi Calm Calm - N/A   Overcast
1:21 AM 55.4 °F 55.4 °F 100% 30.06 in 1.8 mi Calm Calm - N/A   Overcast
1:34 AM 55.4 °F 55.4 °F 100% 30.06 in 3.0 mi Calm Calm - N/A   Overcast
1:44 AM 55.4 °F 55.4 °F 100% 30.06 in 1.8 mi Calm Calm - N/A   Overcast
1:48 AM 55.4 °F 55.4 °F 100% 30.06 in 0.8 mi Calm Calm - N/A   Mist
1:53 AM 55.9 °F 55.0 °F 97% 30.06 in 0.8 mi South 3.5 mph - N/A   Mist
2:03 AM 55.4 °F 55.4 °F 100% 30.06 in 1.2 mi Calm Calm - N/A   Overcast
2:26 AM 55.4 °F 55.4 °F 100% 30.06 in 0.8 mi Calm Calm - N/A   Mist
2:37 AM 55.4 °F 55.4 °F 100% 30.06 in 1.0 mi Calm Calm - N/A   Mist
2:44 AM 55.4 °F 55.4 °F 100% 30.06 in 0.5 mi Calm Calm - N/A Fog Fog
2:53 AM 55.9 °F 55.0 °F 97% 30.06 in 0.5 mi Calm Calm - N/A Fog Fog
3:24 AM 55.4 °F 55.4 °F 100% 30.05 in 0.2 mi SSW 3.5 mph - N/A Fog Fog
3:34 AM 55.4 °F 55.4 °F 100% 30.05 in 0.5 mi South 4.6 mph - N/A Fog Fog
3:53 AM 55.0 °F 54.0 °F 96% 30.06 in 0.2 mi South 3.5 mph - N/A Fog Fog
4:21 AM 55.4 °F 53.6 °F 94% 30.06 in 0.5 mi Calm Calm - N/A Fog Fog
4:53 AM 54.0 °F 54.0 °F 100% 30.07 in 0.5 mi Calm Calm - N/A Fog Fog
5:15 AM 53.6 °F 53.6 °F 100% 30.07 in 1.5 mi Calm Calm - N/A   Overcast
5:20 AM 53.6 °F 53.6 °F 100% 30.07 in 3.0 mi Calm Calm - N/A   Overcast
5:48 AM 53.6 °F 53.6 °F 100% 30.07 in 1.8 mi Calm Calm - N/A   Overcast
5:53 AM 54.0 °F 54.0 °F 100% 30.07 in 1.2 mi Calm Calm - N/A   Overcast
5:59 AM 53.6 °F 53.6 °F 100% 30.07 in 2.0 mi Calm Calm - N/A   Overcast
6:11 AM 53.6 °F 53.6 °F 100% 30.07 in 1.2 mi Calm Calm - N/A   Overcast
6:34 AM 53.6 °F 53.6 °F 100% 30.07 in 0.8 mi Calm Calm - N/A   Mist
6:41 AM 53.6 °F 53.6 °F 100% 30.07 in 1.5 mi Calm Calm - N/A   Overcast
6:53 AM 54.0 °F 54.0 °F 100% 30.08 in 2.0 mi Calm Calm - N/A   Overcast
7:02 AM 53.6 °F 53.6 °F 100% 30.09 in 1.2 mi SE 3.5 mph - N/A   Overcast
7:14 AM 53.6 °F 53.6 °F 100% 30.09 in 0.8 mi Calm Calm - N/A   Mist
7:19 AM 53.6 °F 53.6 °F 100% 30.09 in 1.5 mi Calm Calm - N/A   Overcast
7:28 AM 53.6 °F 53.6 °F 100% 30.09 in 2.0 mi Calm Calm - N/A   Overcast
7:37 AM 53.6 °F 53.6 °F 100% 30.10 in 1.2 mi Calm Calm - N/A   Overcast
7:48 AM 53.6 °F 53.6 °F 100% 30.10 in 2.0 mi Calm Calm - N/A   Overcast
7:53 AM 54.0 °F 54.0 °F 100% 30.10 in 3.0 mi Calm Calm - N/A   Overcast
8:53 AM 55.0 °F 53.1 °F 93% 30.11 in 10.0 mi Calm Calm - N/A   Overcast
9:09 AM 55.4 °F 53.6 °F 94% 30.11 in 10.0 mi Calm Calm - N/A   Overcast
9:53 AM 61.0 °F 54.0 °F 78% 30.11 in 10.0 mi SSE 5.8 mph - N/A   Overcast
10:18 AM 60.8 °F 53.6 °F 77% 30.10 in 10.0 mi SSE 4.6 mph - N/A   Scattered Clouds
10:53 AM 64.0 °F 55.0 °F 73% 30.10 in 10.0 mi SSE 4.6 mph - N/A   Clear
11:53 AM 70.0 °F 57.0 °F 63% 30.09 in 10.0 mi SSE 5.8 mph - N/A   Clear
12:53 PM 69.1 °F 55.0 °F 61% 30.07 in 10.0 mi SSW 9.2 mph - N/A   Clear
1:53 PM 66.9 °F 55.0 °F 66% 30.07 in 10.0 mi SSW 10.4 mph - N/A   Clear
2:53 PM 66.0 °F 55.0 °F 68% 30.06 in 10.0 mi SSW 9.2 mph - N/A   Clear
3:53 PM 64.9 °F 54.0 °F 68% 30.05 in 10.0 mi South 9.2 mph - N/A   Clear
4:53 PM 61.0 °F 54.0 °F 78% 30.05 in 10.0 mi South 10.4 mph - N/A   Partly Cloudy
5:38 PM 57.2 °F 53.6 °F 88% 30.05 in 10.0 mi South 8.1 mph - N/A   Overcast
5:53 PM 57.9 °F 54.0 °F 87% 30.06 in 10.0 mi Variable 3.5 mph - N/A   Overcast
6:53 PM 55.9 °F 54.0 °F 93% 30.06 in 9.0 mi Variable 4.6 mph - N/A   Overcast
7:53 PM 55.9 °F 54.0 °F 93% 30.06 in 10.0 mi Variable 3.5 mph - N/A   Overcast
8:53 PM 55.9 °F 54.0 °F 93% 30.08 in 9.0 mi East 3.5 mph - N/A   Overcast
9:53 PM 55.9 °F 54.0 °F 93% 30.09 in 5.0 mi Calm Calm - N/A   Overcast
10:53 PM 55.9 °F 54.0 °F 93% 30.09 in 7.0 mi Calm Calm - N/A   Overcast
11:53 PM 55.9 °F 54.0 °F 93% 30.08 in 6.0 mi Calm Calm - N/A   Overcast